When you browse on this site, cookies collect data to enhance your experience and personalize the content and advertising you see.
Visit our Privacy Policy to learn more. By continuing to use the site, you agree to this use of cookies and data.

Hourly Weather Sterling Heights

Today, 8 July, Wednesday

Time Temperature Precipitation Wind Pressure Humidity
00:00 +28°C° 0 mm 1 mps 743 mmHg 67%
01:00 +27°C° 0 mm 1 mps 743 mmHg 69%
02:00 +27°C° 0 mm 1 mps 743 mmHg 71%
03:00 +26°C° 0 mm 1 mps 743 mmHg 73%
04:00 +27°C° 0 mm 1 mps 743 mmHg 72%
05:00 +27°C° 0 mm 1 mps 744 mmHg 71%
06:00 +27°C° 0 mm 1 mps 744 mmHg 70%
07:00 +29°C° 0.1 mm 1 mps 744 mmHg 64%
08:00 +31°C° 0.1 mm 1 mps 744 mmHg 58%
09:00 +31°C° 0.1 mm 0 mps 744 mmHg 52%
10:00 +34°C° 0 mm 1 mps 744 mmHg 48%
11:00 +35°C° 0 mm 1 mps 744 mmHg 44%
12:00 +36°C° 0 mm 1 mps 743 mmHg 40%
13:00 +36°C° 0.3 mm 2 mps 743 mmHg 43%
14:00 +36°C° 0.3 mm 2 mps 743 mmHg 45%
15:00 +35°C° 0.3 mm 2 mps 742 mmHg 48%
16:00 +32°C° 2.6 mm 2 mps 742 mmHg 57%
17:00 +30°C° 2.6 mm 3 mps 742 mmHg 66%
18:00 +28°C° 2.6 mm 3 mps 742 mmHg 74%
19:00 +28°C° 0.4 mm 2 mps 742 mmHg 73%
20:00 +28°C° 0.4 mm 1 mps 742 mmHg 71%
21:00 +28°C° 0.4 mm 1 mps 742 mmHg 69%
22:00 +27°C° 0 mm 1 mps 742 mmHg 70%
23:00 +27°C° 0 mm 1 mps 742 mmHg 70%

Tomorrow, 9 July, Thursday

Time Temperature Precipitation Wind Pressure Humidity
00:00 +27°C° 0 mm 1 mps 742 mmHg 71%
01:00 +27°C° 0 mm 1 mps 742 mmHg 72%
02:00 +26°C° 0 mm 1 mps 742 mmHg 74%
03:00 +26°C° 0 mm 1 mps 742 mmHg 75%
04:00 +27°C° 0.1 mm 1 mps 742 mmHg 73%
05:00 +28°C° 0.1 mm 1 mps 743 mmHg 71%
06:00 +28°C° 0.1 mm 1 mps 743 mmHg 69%
07:00 +30°C° 0 mm 2 mps 743 mmHg 64%
08:00 +31°C° 0 mm 2 mps 742 mmHg 58%
09:00 +34°C° 0 mm 3 mps 742 mmHg 53%
10:00 +34°C° 0 mm 3 mps 742 mmHg 52%
11:00 +35°C° 0 mm 4 mps 742 mmHg 50%
12:00 +36°C° 0 mm 4 mps 742 mmHg 48%
13:00 +36°C° 0.6 mm 4 mps 742 mmHg 49%
14:00 +35°C° 0.6 mm 3 mps 742 mmHg 50%
15:00 +35°C° 0.6 mm 3 mps 741 mmHg 50%
16:00 +35°C° 0.2 mm 3 mps 741 mmHg 54%
17:00 +34°C° 0.2 mm 3 mps 741 mmHg 57%
18:00 +32°C° 0.2 mm 2 mps 741 mmHg 61%
19:00 +31°C° 0.1 mm 2 mps 741 mmHg 63%
20:00 +30°C° 0.1 mm 2 mps 741 mmHg 66%
21:00 +29°C° 0.1 mm 1 mps 741 mmHg 69%
22:00 +29°C° 0.2 mm 2 mps 741 mmHg 70%
23:00 +29°C° 0.2 mm 2 mps 741 mmHg 72%

Day after tomorrow, 10 July, Friday

Time Temperature Precipitation Wind Pressure Humidity
00:00 +28°C° 0.2 mm 2 mps 741 mmHg 74%
01:00 +28°C° 0 mm 2 mps 741 mmHg 75%
02:00 +28°C° 0 mm 2 mps 741 mmHg 75%
03:00 +27°C° 0 mm 2 mps 740 mmHg 76%
04:00 +28°C° 0 mm 2 mps 741 mmHg 74%
05:00 +28°C° 0 mm 2 mps 741 mmHg 73%
06:00 +28°C° 0 mm 2 mps 741 mmHg 71%
07:00 +29°C° 0.1 mm 2 mps 741 mmHg 65%
08:00 +31°C° 0.1 mm 3 mps 741 mmHg 59%
09:00 +33°C° 0.1 mm 3 mps 741 mmHg 54%
10:00 +34°C° 0.1 mm 3 mps 741 mmHg 51%
11:00 +35°C° 0.1 mm 4 mps 741 mmHg 49%
12:00 +35°C° 0.1 mm 4 mps 741 mmHg 46%
13:00 +35°C° 0 mm 5 mps 740 mmHg 47%
14:00 +35°C° 0 mm 5 mps 740 mmHg 48%
15:00 +35°C° 0 mm 5 mps 740 mmHg 48%
16:00 +34°C° 0 mm 5 mps 740 mmHg 52%
17:00 +33°C° 0 mm 4 mps 740 mmHg 55%
18:00 +32°C° 0 mm 4 mps 740 mmHg 58%
19:00 +30°C° 0 mm 4 mps 740 mmHg 61%
20:00 +30°C° 0 mm 3 mps 740 mmHg 63%
21:00 +29°C° 0 mm 3 mps 740 mmHg 66%
22:00 +28°C° 0 mm 3 mps 740 mmHg 69%
23:00 +27°C° 0 mm 3 mps 740 mmHg 72%

11 July, Saturday

Time Temperature Precipitation Wind Pressure Humidity
00:00 +26°C° 0 mm 3 mps 740 mmHg 75%
01:00 +26°C° 0 mm 3 mps 740 mmHg 77%
02:00 +25°C° 0 mm 3 mps 740 mmHg 79%
03:00 +24°C° 0 mm 3 mps 740 mmHg 81%
04:00 +24°C° 0 mm 3 mps 740 mmHg 81%
05:00 +24°C° 0 mm 3 mps 740 mmHg 80%
06:00 +25°C° 0 mm 3 mps 740 mmHg 80%
07:00 +26°C° 0 mm 3 mps 740 mmHg 74%
08:00 +27°C° 0 mm 3 mps 741 mmHg 68%
09:00 +29°C° 0 mm 3 mps 741 mmHg 62%
10:00 +30°C° 0.1 mm 3 mps 741 mmHg 57%
11:00 +31°C° 0.1 mm 3 mps 741 mmHg 52%
12:00 +33°C° 0.1 mm 3 mps 741 mmHg 47%
13:00 +33°C° 0.2 mm 3 mps 740 mmHg 49%
14:00 +31°C° 0.2 mm 3 mps 740 mmHg 50%
15:00 +31°C° 0.2 mm 2 mps 740 mmHg 52%
16:00 +30°C° 0.8 mm 2 mps 740 mmHg 55%
17:00 +29°C° 0.8 mm 2 mps 740 mmHg 57%
18:00 +29°C° 0.8 mm 1 mps 739 mmHg 60%
19:00 +28°C° 0.1 mm 1 mps 740 mmHg 62%
20:00 +27°C° 0.1 mm 1 mps 740 mmHg 65%
21:00 +26°C° 0.1 mm 1 mps 740 mmHg 67%
22:00 +25°C° 1.2 mm 1 mps 740 mmHg 70%
23:00 +25°C° 1.2 mm 1 mps 740 mmHg 72%

12 July, Sunday

Time Temperature Precipitation Wind Pressure Humidity
00:00 +24°C° 1.2 mm 1 mps 739 mmHg 75%
01:00 +24°C° 0.9 mm 2 mps 739 mmHg 75%
02:00 +23°C° 0.9 mm 2 mps 739 mmHg 76%
03:00 +23°C° 0.9 mm 2 mps 739 mmHg 76%
04:00 +23°C° 1.6 mm 2 mps 739 mmHg 79%
05:00 +21°C° 1.6 mm 3 mps 739 mmHg 81%
06:00 +21°C° 1.6 mm 3 mps 739 mmHg 83%
07:00 +21°C° 0.4 mm 3 mps 739 mmHg 82%
08:00 +21°C° 0.4 mm 3 mps 740 mmHg 81%
09:00 +22°C° 0.4 mm 3 mps 740 mmHg 80%
10:00 +25°C° 0.1 mm 3 mps 740 mmHg 73%
11:00 +26°C° 0.1 mm 3 mps 740 mmHg 65%
12:00 +28°C° 0.1 mm 3 mps 740 mmHg 58%
13:00 +28°C° 0.2 mm 3 mps 740 mmHg 58%
14:00 +28°C° 0.2 mm 3 mps 739 mmHg 58%
15:00 +28°C° 0.2 mm 4 mps 739 mmHg 58%
16:00 +27°C° 0.2 mm 4 mps 739 mmHg 61%
17:00 +27°C° 0.2 mm 3 mps 739 mmHg 65%
18:00 +26°C° 0.2 mm 3 mps 739 mmHg 69%
19:00 +25°C° 0 mm 3 mps 739 mmHg 72%
20:00 +24°C° 0 mm 3 mps 740 mmHg 76%
21:00 +22°C° 0 mm 3 mps 740 mmHg 79%
22:00 +21°C° 0 mm 3 mps 740 mmHg 81%
23:00 +21°C° 0 mm 3 mps 740 mmHg 83%

13 July, Monday

Time Temperature Precipitation Wind Pressure Humidity
00:00 +20°C° 0 mm 3 mps 740 mmHg 85%
01:00 +20°C° 0 mm 3 mps 740 mmHg 85%
02:00 +20°C° 0 mm 3 mps 740 mmHg 84%
03:00 +19°C° 0 mm 3 mps 740 mmHg 84%
04:00 +20°C° 0 mm 3 mps 741 mmHg 82%
05:00 +20°C° 0 mm 3 mps 741 mmHg 80%
06:00 +21°C° 0 mm 4 mps 741 mmHg 78%
07:00 +22°C° 0 mm 4 mps 741 mmHg 72%
08:00 +25°C° 0 mm 4 mps 742 mmHg 67%
09:00 +26°C° 0 mm 4 mps 742 mmHg 61%
10:00 +27°C° 0 mm 4 mps 742 mmHg 58%
11:00 +28°C° 0 mm 4 mps 742 mmHg 56%
12:00 +28°C° 0 mm 5 mps 742 mmHg 53%
13:00 +28°C° 0 mm 4 mps 742 mmHg 54%
14:00 +28°C° 0 mm 4 mps 742 mmHg 54%
15:00 +28°C° 0 mm 4 mps 742 mmHg 55%
16:00 +27°C° 0 mm 4 mps 742 mmHg 58%
17:00 +27°C° 0 mm 4 mps 742 mmHg 61%
18:00 +26°C° 0 mm 3 mps 742 mmHg 63%
19:00 +25°C° 0 mm 3 mps 743 mmHg 66%
20:00 +24°C° 0 mm 3 mps 743 mmHg 68%
21:00 +21°C° 0 mm 2 mps 743 mmHg 70%
22:00 +21°C° 0 mm 2 mps 743 mmHg 70%
23:00 +22°C° 0 mm 1 mps 743 mmHg 69%
Show more